University AP, Davis, CA, CA

6:12 AM PST on December 07, 2019 (GMT -0800)
University AP, Davis, CA

Weather History for KEDU - October, 2019

Change the Weather History Date:

Tuesday, October 22, 2019

  Actual Average (KSMF) Record (KSMF)
Temperature  
Mean Temperature 67 °F -  
Max Temperature 84 °F 75 °F 88 °F (1959)
Min Temperature 50 °F 49 °F 39 °F (1949)
Cooling Degree Days 2    
Growing Degree Days 17 (Base 50)    
Moisture  
Dew Point 42 °F    
Average Humidity 41    
Maximum Humidity 76    
Minimum Humidity 20    
Precipitation  
Precipitation 0.00 in - - ()
Sea Level Pressure  
Sea Level Pressure 30.13 in    
Wind  
Wind Speed 5 mph ()    
Max Wind Speed 10 mph    
Max Gust Speed -    
Visibility 9.9 miles    
Events      
Averages and records for this station are not official NWS values.
T = Trace of Precipitation, MM = Missing Value Source: Averaged Metar Reports

Daily Weather History Graph

Daily Weather History Graph

Search for Another Location

Airport or City:

Astronomy

Oct. 22, 2019 Rise Set
Actual Time 7:23 AM PDT 6:19 PM PDT
Civil Twilight 6:56 AM PDT 6:46 PM PDT
Nautical Twilight 6:25 AM PDT 7:17 PM PDT
Astronomical Twilight 5:54 AM PDT 7:48 PM PDT
Moon 12:44 AM PDT (10/22) 3:27 PM PDT (10/22)
Length of Visible Light 11h 50m
Length of Day
10h 56m
Last Quarter, 36% of the Moon is Illuminated
Oct 22
Last Quarter
Oct 27
New
Nov 4
First Quarter
Nov 12
Full
Nov 19
Last Quarter

Hourly Weather History & Observations

Time (PDT) Temp. Dew Point Humidity Pressure Visibility Wind Dir Wind Speed Gust Speed Precip Events Conditions
12:15 AM 71.6 °F 39.2 °F 31% 30.15 in 10.0 mi North 6.9 mph - N/A   Clear
12:35 AM 73.4 °F 39.2 °F 29% 30.16 in 10.0 mi North 4.6 mph - N/A   Clear
12:55 AM 71.6 °F 39.2 °F 31% 30.17 in 10.0 mi North 5.8 mph - N/A   Clear
1:15 AM 71.6 °F 39.2 °F 31% 30.16 in 10.0 mi North 8.1 mph - N/A   Clear
1:35 AM 71.6 °F 39.2 °F 31% 30.17 in 10.0 mi NE 3.5 mph - N/A   Clear
1:55 AM 62.6 °F 41.0 °F 45% 30.18 in 10.0 mi East 3.5 mph - N/A   Clear
2:15 AM 59.0 °F 41.0 °F 51% 30.18 in 10.0 mi ENE 4.6 mph - N/A   Clear
2:35 AM 57.2 °F 41.0 °F 55% 30.18 in 10.0 mi Calm Calm - N/A   Clear
2:55 AM 55.4 °F 41.0 °F 58% 30.18 in 10.0 mi Calm Calm - N/A   Clear
3:15 AM 57.2 °F 41.0 °F 55% 30.18 in 10.0 mi NNE 6.9 mph - N/A   Clear
3:35 AM 62.6 °F 41.0 °F 45% 30.18 in 10.0 mi North 8.1 mph - N/A   Clear
4:15 AM 62.6 °F 41.0 °F 45% 30.18 in 10.0 mi North 6.9 mph - N/A   Clear
4:35 AM 62.6 °F 41.0 °F 45% 30.18 in 10.0 mi North 6.9 mph - N/A   Clear
4:55 AM 59.0 °F 41.0 °F 51% 30.18 in 10.0 mi Calm Calm - N/A   Clear
5:15 AM 57.2 °F 41.0 °F 55% 30.18 in 10.0 mi Calm Calm - N/A   Clear
5:55 AM 59.0 °F 41.0 °F 51% 30.18 in 10.0 mi Calm Calm - N/A   Clear
6:15 AM 55.4 °F 42.8 °F 63% 30.19 in 10.0 mi Calm Calm - N/A   Clear
6:30 AM 55.4 °F 41.0 °F 58% 30.19 in 10.0 mi NW 3.5 mph - N/A   Clear
6:55 AM 53.6 °F 41.0 °F 62% 30.19 in 10.0 mi Calm Calm - N/A   Clear
7:15 AM 53.6 °F 41.0 °F 62% 30.19 in 10.0 mi Calm Calm - N/A   Clear
7:35 AM 50.0 °F 42.8 °F 76% 30.20 in 10.0 mi Calm Calm - N/A   Clear
7:55 AM 53.6 °F 41.0 °F 62% 30.20 in 10.0 mi NE 3.5 mph - N/A   Clear
8:15 AM 53.6 °F 42.8 °F 67% 30.21 in 1.5 mi Calm Calm - N/A   Clear
8:35 AM 57.2 °F 42.8 °F 59% 30.21 in 9.0 mi ENE 3.5 mph - N/A   Clear
8:55 AM 62.6 °F 44.6 °F 52% 30.22 in 10.0 mi NNE 6.9 mph - N/A   Clear
9:15 AM 64.4 °F 44.6 °F 49% 30.22 in 10.0 mi NNE 6.9 mph - N/A   Clear
9:35 AM 64.4 °F 44.6 °F 49% 30.22 in 10.0 mi NE 8.1 mph - N/A   Clear
9:55 AM 66.2 °F 44.6 °F 46% 30.22 in 10.0 mi NNE 6.9 mph - N/A   Clear
10:15 AM 66.2 °F 42.8 °F 43% 30.21 in 10.0 mi North 9.2 mph - N/A   Clear
10:35 AM 68.0 °F 42.8 °F 40% 30.21 in 10.0 mi NNE 10.4 mph - N/A   Clear
10:55 AM 71.6 °F 41.0 °F 33% 30.21 in 10.0 mi North 9.2 mph - N/A   Clear
11:10 AM 71.6 °F 42.8 °F 35% 30.21 in 10.0 mi North 8.1 mph - N/A   Clear
11:30 AM 71.6 °F 42.8 °F 35% 30.21 in 10.0 mi North 9.2 mph - N/A   Clear
11:50 AM 73.4 °F 42.8 °F 33% 30.21 in 10.0 mi North 8.1 mph - N/A   Clear
12:10 PM 75.2 °F 42.8 °F 31% 30.20 in 10.0 mi North 9.2 mph - N/A   Clear
12:30 PM 75.2 °F 42.8 °F 31% 30.19 in 10.0 mi North 8.1 mph - N/A   Clear
12:50 PM 77.0 °F 42.8 °F 29% 30.18 in 10.0 mi North 8.1 mph - N/A   Clear
1:10 PM 77.0 °F 42.8 °F 29% 30.17 in 10.0 mi North 9.2 mph - N/A   Clear
1:30 PM 78.8 °F 41.0 °F 26% 30.16 in 10.0 mi North 10.4 mph - N/A   Clear
1:50 PM 80.6 °F 41.0 °F 24% 30.14 in 10.0 mi North 9.2 mph - N/A   Clear
2:10 PM 80.6 °F 42.8 °F 26% 30.13 in 10.0 mi North 8.1 mph - N/A   Clear
2:30 PM 82.4 °F 41.0 °F 23% 30.12 in 10.0 mi North 10.4 mph - N/A   Clear
2:50 PM 82.4 °F 41.0 °F 23% 30.11 in 10.0 mi North 9.2 mph - N/A   Clear
3:10 PM 82.4 °F 41.0 °F 23% 30.10 in 10.0 mi NNE 8.1 mph - N/A   Clear
3:30 PM 84.2 °F 41.0 °F 22% 30.10 in 10.0 mi NNE 10.4 mph - N/A   Clear
3:50 PM 84.2 °F 41.0 °F 22% 30.09 in 10.0 mi North 6.9 mph - N/A   Clear
4:10 PM 84.2 °F 41.0 °F 22% 30.08 in 10.0 mi North 6.9 mph - N/A   Clear
4:30 PM 84.2 °F 39.2 °F 20% 30.07 in 10.0 mi NNW 9.2 mph - N/A   Clear
4:50 PM 84.2 °F 39.2 °F 20% 30.07 in 10.0 mi North 6.9 mph - N/A   Clear
5:10 PM 84.2 °F 39.2 °F 20% 30.05 in 10.0 mi North 8.1 mph - N/A   Clear
5:30 PM 82.4 °F 41.0 °F 23% 30.05 in 10.0 mi North 5.8 mph - N/A   Clear
5:50 PM 82.4 °F 41.0 °F 23% 30.04 in 10.0 mi North 3.5 mph - N/A   Clear
6:10 PM 80.6 °F 41.0 °F 24% 30.04 in 10.0 mi North 3.5 mph - N/A   Clear
6:30 PM 77.0 °F 42.8 °F 29% 30.04 in 10.0 mi NNW 3.5 mph - N/A   Clear
7:10 PM 71.6 °F 44.6 °F 38% 30.04 in 10.0 mi North 3.5 mph - N/A   Clear
7:30 PM 71.6 °F 42.8 °F 35% 30.05 in 10.0 mi NE 3.5 mph - N/A   Clear
7:50 PM 69.8 °F 41.0 °F 35% 30.05 in 10.0 mi Calm Calm - N/A   Clear
8:10 PM 68.0 °F 44.6 °F 43% 30.05 in 10.0 mi Calm Calm - N/A   Clear
8:30 PM 64.4 °F 44.6 °F 49% 30.05 in 10.0 mi Calm Calm - N/A   Clear
8:50 PM 64.4 °F 44.6 °F 49% 30.05 in 10.0 mi Calm Calm - N/A   Clear
9:10 PM 62.6 °F 46.4 °F 55% 30.05 in 10.0 mi Calm Calm - N/A   Clear
9:30 PM 60.8 °F 44.6 °F 55% 30.05 in 10.0 mi Calm Calm - N/A   Clear
9:50 PM 60.8 °F 44.6 °F 55% 30.04 in 10.0 mi Calm Calm - N/A   Clear
10:10 PM 62.6 °F 44.6 °F 52% 30.04 in 10.0 mi Calm Calm - N/A   Clear
10:30 PM 59.0 °F 41.0 °F 51% 30.04 in 10.0 mi Calm Calm - N/A   Clear
10:50 PM 62.6 °F 42.8 °F 48% 30.04 in 10.0 mi Calm Calm - N/A   Clear
11:10 PM 66.2 °F 41.0 °F 40% 30.03 in 10.0 mi NNW 4.6 mph - N/A   Clear
11:30 PM 68.0 °F 41.0 °F 37% 30.03 in 10.0 mi NNW 3.5 mph - N/A   Clear
11:50 PM 71.6 °F 44.6 °F 38% 30.03 in 10.0 mi NNW 5.8 mph - N/A   Clear